Regional Weather Roundup
Issued by NWS Austin/San Antonio, TX

Home | Current Version | Previous Version | Text Only | Print | Product List | Glossary On
Versions: 1 2 3 4 5 6 7 8 9 10 11 12 13 14 15 16 17 18 19 20 21 22 23 24 25 26 27 28 29 30 31 32 33 34 35 36 37 38 39 40 41 42 43 44 45 46 47 48 49 50
449
ASUS44 KEWX 210510
RWREWX
SOUTH TEXAS REGIONAL WEATHER ROUNDUP
NATIONAL WEATHER SERVICE AUSTIN/SAN ANTONIO TX
1200 AM CDT SUN APR 21 2019

NOTE: "FAIR" INDICATED FEW OR NO CLOUDS BELOW 12,000 FEET WITH NO
SIGNIFICANT WEATHER AND/OR OBSTRUCTIONS TO VISIBILITY.

* - THESE STATIONS ARE NOT NWS OR FAA STATIONS...AND ARE NOT SUBJECT
    TO NWS AND FAA QUALITY CONTROL.

TXZ171-172-183>190-210600-
TEXAS HILL COUNTRY AND EDWARDS PLATEAU

CITY           SKY/WX    TMP DP  RH WIND       PRES   REMARKS
JUNCTION       CLEAR     67  50  54 S8        29.96F
*LLANO         CLEAR     66  54  63 SE5       29.99S
BURNET         CLEAR     66  53  63 S6        29.99F
*HORSESHOE BAY CLEAR     67  54  62 S12G20    29.97S
*KERRVILLE     CLEAR     64  54  70 SE9       30.00S
*FREDERICKSBRG CLEAR     64  51  64 S7        29.99S
*ROCKSPRINGS     N/A     66  50  55 SE13G21   30.01F
*BOERNE STAGE  CLEAR     63  52  67 S8        30.02S
*CASTROVILLE   CLEAR     66  51  60 SE8       30.02R
HONDO          CLEAR     66  55  67 SE10      29.99S
*UVALDE        CLEAR     63  55  77 E6        29.97F
DEL RIO        CLEAR     72  52  49 E12       29.89F
LAUGHLIN AFB   CLEAR     69  53  57 E12       29.91S
CARRIZO SPRGS  CLEAR     70  55  60 SE10G16   29.93S
*FAITH RANCH   CLEAR     75  55  50 SE13G21   29.92F
$$

TXZ173-191>194-202-209-217>225-228-210600-
CENTRAL AND SOUTH CENTRAL TEXAS

CITY           SKY/WX    TMP DP  RH WIND       PRES   REMARKS
GEORGETOWN     CLEAR     68  57  68 S15       29.99S
AUSTIN/BERGSTM CLEAR     66  57  72 S10       29.99R
AUSTIN/MABRY   CLEAR     67  56  67 VRB6      30.00R
*AUSTIN/EXEC   CLEAR     63  57  82 S7        30.00R
*LAGO VISTA    CLEAR     65  55  72 S12       30.00R
SAN MARCOS     CLEAR     64  57  78 S8        30.01R
NEW BRAUNFELS  CLEAR     62  55  77 S8        30.00R
RANDOLPH AFB   CLEAR     64  53  68 S9        30.01R
PT SAN ANTONIO CLEAR     64  53  67 SE12      29.98S
SAN ANTONIO    CLEAR     65  52  62 SE14      30.01R
STINSON FIELD  CLEAR     64  51  62 SE7       29.99S
*LA GRANGE     CLEAR     63  58  83 S6        30.00R
*GIDDINGS      CLEAR     67  59  76 S6        30.02R HAZE
*GONZALES      CLEAR     63  59  86 S6        30.01S
$$

TXZ163>164-176>182-195>201-210>213-226-227-235-210600-
SOUTHEAST TEXAS

CITY           SKY/WX    TMP DP  RH WIND       PRES   REMARKS
COLLEGE STN    CLEAR     63  53  70 S8        30.00S
*BRYAN         CLEAR     63  52  67 S9        30.01S
*CALDWELL      CLEAR     60  54  80 S5        30.01R
*CROCKETT        N/A     54  50  87 CALM      30.03S
*BRENHAM       CLEAR     64  55  73 S8        30.02S
HUNTSVILLE     CLEAR     63  50  62 S6        30.00F
CONROE         CLEAR     54  53  97 CALM      30.03S
HOUSTON BUSH   CLEAR     64  52  64 S5        30.03S
HOUSTON HOBBY  FAIR      62  51  67 S8        30.02F
*HOUSTON SW AP FAIR      55  51  87 CALM      30.04F
PEARLAND       FAIR      61  54  77 CALM      30.04F
HOUSTON HOOKS  FAIR      63  52  67 S5        30.02S
ELLINGTON FLD  NOT AVBL
SUGAR LAND     FAIR      61  52  72 S3        30.02F
*HOUSTON EXEC  FAIR      57  54  88 S6        30.03F
*CLEVELAND MUN FAIR      56  55  94 CALM      30.03F
*WHARTON       CLEAR     57  53  85 SE5       30.03S
*COLUMBUS      FAIR      60  54  82 S5        30.03S
*EAGLE LAKE    CLEAR     61  56  83 S9        30.02S
$$

TXZ214>216-236>238-210600-
THE UPPER TEXAS COAST

CITY           SKY/WX    TMP DP  RH WIND       PRES   REMARKS
*ORANGE        FAIR      55  54  97 CALM      30.06S
PORT ARTHUR    FAIR      56  51  84 S3        30.04S
GALVESTON      FAIR      66  53  63 S10       30.04F
ANGLETON       FAIR      57  52  83 CALM      30.04S
*BAY CITY      CLEAR     59  55  87 S3        30.03S
PALACIOS       CLEAR     69  61  75 S13       30.02F
$$

TXZ229>234-239>247-210600-
TEXAS COASTAL BEND AND RIO GRANDE PLAINS

CITY           SKY/WX    TMP DP  RH WIND       PRES   REMARKS
VICTORIA       CLEAR     61  58  90 S7        30.02S
*BEEVILLE      CLEAR     61  56  84 SE6       30.01S
ROCKPORT       CLEAR     69  61  75 S10G20    30.01F
*PORT ARANSAS  CLEAR     71  63  77 SE13      30.03F
*PORT LAVACA   CLEAR     65  62  87 S7        30.02F
*INGLESIDE     CLEAR     69  63  79 S8        30.01F
CORPUS CHRISTI PTCLDY    66  61  84 S9        30.01S
CORPUS NAS     CLEAR     74  64  71 S14G21    30.01F
*ROBSTOWN      NOT AVBL
ALICE          CLEAR     61  58  90 SE7       30.00S
KINGSVILLE NAS CLEAR     68  62  81 SE9       30.01S
COTULLA        CLEAR     67  55  65 SE12      29.96S
LAREDO         CLEAR     73  54  51 SE18      29.94F
$$

TXZ248>255-210600-
DEEP SOUTH TEXAS

CITY           SKY/WX    TMP DP  RH WIND       PRES   REMARKS
BROWNSVILLE    FAIR      70  65  84 SE10      30.01F
PORT ISABEL    FAIR      70  62  76 SE10      30.01S
HARLINGEN      CLEAR     67  62  84 SE10      30.00S
*HEBBRONVILLE  CLEAR     65  53  65 SE10      30.00S
MCALLEN        CLEAR     71  64  78 SE12      29.99S
*WESLACO       CLOUDY    68  62  81 SE8       29.99S
FALFURRIAS     CLEAR     68  58  70 SE7       30.01S
EDINBURG       FAIR      70  63  78 E6        30.01R
*ZAPATA        FAIR      72  56  58 SE12G17   29.96F
$$

TXZ213>215-236>238-242>244-246-247-251-254-255-210600-
CMAN STATIONS

STATION/POSITION TIME  TEMP    WIND        PRES    WAVE
                       AIR SEA DIR/SP/G            HT/PER
                 (UTC) (F)     (DEG/KT/KT) (MB)    (FT/S)
SABINE PASS      0442   64 71  190/  5/  8 1018.9
SEA RIM ST PARK  0500   67     190/  9/ 10 1017.2
NORTH JETTY/GLS  0442   69 71  200/ 12/ 15 1016.8
EAGLE POINT      0442   67 71  220/  8/ 11 1017.2
MORGANS POINT    0442   66 70  200/  3/  5 1017.0
PORT O`CONNOR    0442   70 71  160/ 16/ 18 1016.2
PORT ARANSAS     0500   71 72  150/ 18/ 20 1016.2
MALAQUITE BEACH  0442   72 74  130/ 16/ 22 1015.7
BAFFIN BAY       0442   71 73  130/ 13/ 17 1016.4
PORT ISABEL      0442   72 75  150/ 12/ 16 1016.6
$$




USA.gov is the U.S. government's official web portal to all federal, state and local government web resources and services.